Location: Godiavel Galaoual
(15.2485°N, 12.6604°W)
Time: 14:54:57
(UTC+00:00)

S-56A Canister/Altair - All Passes

Search period start: 22 June 2021 00:00
Search period end: 02 July 2021 00:00
Orbit: 632 x 2500 km, 38.9° (Epoch: 21 June)

Date Brightness Start Highest point End Pass type
(mag) Time Alt. Az. Time Alt. Az. Time Alt. Az.
22 Jun - 01:11:29 10° SSW 01:18:31 44° SE 01:23:30 10° ENE night (unlit)
22 Jun - 03:17:43 10° W 03:22:19 26° NW 03:26:11 10° NNE visible
22 Jun - 09:34:50 10° NNW 09:40:03 28° NE 09:47:11 10° E daylight
22 Jun - 11:37:12 10° WNW 11:44:32 72° SW 11:55:57 10° SE daylight
22 Jun - 13:43:49 10° W 13:50:40 21° SW 13:59:14 10° S daylight
23 Jun - 00:38:26 10° SSW 00:45:47 38° SE 00:50:57 10° ENE night (unlit)
23 Jun - 02:44:15 10° W 02:49:45 33° NW 02:54:03 10° NNE visible
23 Jun - 09:02:49 10° NNW 09:07:18 22° NE 09:13:05 10° E daylight
23 Jun - 11:04:44 10° NW 11:11:36 83° SW 11:22:20 10° SE daylight
23 Jun - 13:10:33 10° W 13:17:23 23° SW 13:26:15 10° S daylight
24 Jun - 00:05:22 10° SSW 00:12:58 33° SE 00:18:21 10° E night (unlit)
24 Jun - 02:10:48 10° WSW 02:17:11 43° NW 02:21:52 10° NE visible
24 Jun - 08:30:57 10° N 08:34:32 17° NNE 08:38:54 10° ENE daylight
24 Jun - 10:32:21 10° NW 10:38:45 85° NE 10:48:43 10° SE daylight
24 Jun - 12:37:28 10° W 12:44:12 26° SW 12:53:11 10° SSE daylight
24 Jun - 23:32:18 10° SSW 23:40:04 29° SE 23:45:40 10° E night (unlit)
25 Jun - 01:37:20 10° WSW 01:44:35 56° NW 01:49:40 10° NE visible
25 Jun - 07:59:20 10° N 08:01:47 13° NNE 08:04:32 10° ENE daylight
25 Jun - 10:00:02 10° NW 10:05:59 72° NE 10:15:05 10° ESE daylight
25 Jun - 12:04:33 10° W 12:11:04 28° SW 12:20:03 10° SSE daylight
25 Jun - 22:59:14 10° SSW 23:07:07 26° SE 23:12:54 10° E night (unlit)
26 Jun - 01:03:50 10° WSW 01:11:57 70° NW 01:17:24 10° NE night (unlit)
26 Jun - 03:14:25 10° NW 03:16:03 11° NNW 03:17:35 10° NNW visible
26 Jun - 09:27:46 10° NW 09:33:17 58° NE 09:41:28 10° ESE daylight
26 Jun - 11:31:45 10° W 11:38:01 32° SW 11:46:53 10° SSE daylight
26 Jun - 22:26:12 10° SSW 22:34:04 23° SE 22:40:00 10° E visible
27 Jun - 00:30:19 10° SW 00:39:15 84° NW 00:45:06 10° NE night (unlit)
27 Jun - 02:39:55 10° WNW 02:43:19 15° NNW 02:46:15 10° N visible
27 Jun - 08:55:33 10° NW 09:00:38 46° NE 09:07:53 10° ESE daylight
27 Jun - 10:59:03 10° W 11:05:03 36° SW 11:13:42 10° SSE daylight
27 Jun - 21:53:12 10° S 22:00:56 21° SE 22:06:57 10° E visible
27 Jun - 23:56:49 10° SW 00:06:30 82° SE 00:12:45 10° NE night (unlit)
28 Jun - 02:05:48 10° W 02:10:36 20° NW 02:14:28 10° NNE visible
28 Jun - 08:23:23 10° NNW 08:28:01 36° NE 08:34:17 10° ESE daylight
28 Jun - 10:26:27 10° WNW 10:32:10 41° SW 10:40:30 10° SSE daylight
28 Jun - 21:20:18 10° S 21:27:45 19° SE 21:33:43 10° ESE visible
28 Jun - 23:23:17 10° SW 23:33:39 71° SE 23:40:20 10° ENE visible
29 Jun - 01:31:46 10° W 01:37:53 25° NW 01:42:30 10° NNE visible
29 Jun - 07:51:16 10° NNW 07:55:26 28° NE 08:00:42 10° E daylight
29 Jun - 09:53:55 10° WNW 09:59:21 47° SW 10:07:20 10° SE daylight
29 Jun - 20:47:31 10° S 20:54:29 17° SE 21:00:15 10° ESE visible
29 Jun - 22:49:45 10° SW 23:00:43 62° SE 23:07:50 10° ENE visible
30 Jun - 00:57:47 10° W 01:05:10 32° NW 01:10:27 10° NNE visible
30 Jun - 07:19:13 10° NNW 07:22:49 22° NE 07:27:07 10° E daylight
30 Jun - 09:21:26 10° WNW 09:26:38 56° SW 09:34:10 10° SE daylight
30 Jun - 11:30:21 10° SW 11:32:01 11° SSW 11:33:50 10° SSW daylight
30 Jun - 20:14:57 10° S 20:21:08 15° SE 20:26:28 10° ESE visible
30 Jun - 22:16:15 10° SW 22:27:41 54° SE 22:35:16 10° ENE visible
01 Jul - 00:23:49 10° WSW 00:32:25 40° NW 00:38:19 10° NNE night (unlit)
01 Jul - 06:47:14 10° N 06:50:11 17° NNE 06:53:28 10° ENE daylight
01 Jul - 08:49:01 10° WNW 08:53:58 68° SW 09:01:01 10° SE daylight
01 Jul - 10:56:23 10° SW 10:59:00 12° SSW 11:02:00 10° SSW daylight
01 Jul - 19:42:46 10° SSE 19:47:43 13° SE 19:52:10 10° ESE visible
01 Jul - 21:42:47 10° SSW 21:54:35 48° SE 22:02:36 10° ENE visible
